Weather History for Fort Worth Alliance, TX

Change the Weather History Date:

Thursday, December 29, 2011

  Actual Average Record
Temperature  
Mean Temperature 48 °F -  
Max Temperature 66 °F 54 °F 73 °F (1999)
Min Temperature 30 °F 32 °F 21 °F (2007)
Degree Days  
Heating Degree Days 17    
Moisture  
Dew Point 35 °F    
Average Humidity 65    
Maximum Humidity 93    
Minimum Humidity 28    
Precipitation  
Precipitation 0.00 in - - ()
Sea Level Pressure  
Sea Level Pressure 29.94 in    
Wind  
Wind Speed 3 mph (South)    
Max Wind Speed 12 mph    
Max Gust Speed -    
Visibility 10 miles    
Events      
Averages and records for this station are not official NWS values.
T = Trace of Precipitation, MM = Missing Value Source: NWS Daily Summary

Daily Weather History Graph

Daily Weather History Graph

Search for Another Location

Airport:

Trip Planner

Search our weather history database for the weather conditions in past years. The results will help you decide how hot, cold, wet, or windy it might be!

Date:

Astronomy

Dec. 29, 2011 Rise Set
Actual Time 7:31 AM CST 5:31 PM CST
Civil Twilight 7:04 AM CST 5:58 PM CST
Nautical Twilight 6:33 AM CST 6:29 PM CST
Astronomical Twilight 6:03 AM CST 6:59 PM CST
Moon 10:42 AM CST (12/29) 10:50 PM CST (12/29)
Length of Visible Light 10h 54m
Length of Day
9h 59m
Waxing Crescent, 27% of the Moon is Illuminated
Dec 29
Waxing Crescent
Jan 1
First Quarter
Jan 9
Full
Jan 16
Last Quarter
Jan 23
New

Hourly Weather History & Observations

Time (CST) Temp. Dew Point Humidity Pressure Visibility Wind Dir Wind Speed Gust Speed Precip Events Conditions
12:53 AM 37.0 °F 33.1 °F 86% 30.05 in 10.0 mi Calm Calm - N/A   Clear
1:53 AM 34.0 °F 30.9 °F 89% 30.04 in 10.0 mi Calm Calm - N/A   Clear
2:53 AM 35.1 °F 32.0 °F 89% 30.04 in 10.0 mi Calm Calm - N/A   Clear
3:53 AM 34.0 °F 30.9 °F 89% 30.03 in 10.0 mi Calm Calm - N/A   Clear
4:53 AM 30.2 °F 28.4 °F 93% 30.00 in 10.0 mi Calm Calm - N/A   Clear
5:53 AM 32.0 °F 30.0 °F 92% 30.03 in 10.0 mi Calm Calm - N/A   Clear
6:53 AM 30.2 °F 28.4 °F 93% 30.00 in 10.0 mi Calm Calm - N/A   Clear
7:53 AM 30.9 °F 28.9 °F 92% 30.02 in 10.0 mi Calm Calm - N/A   Clear
8:53 AM 39.9 °F 35.1 °F 83% 30.04 in 10.0 mi Calm Calm - N/A   Clear
9:53 AM 48.0 °F 39.0 °F 71% 30.04 in 10.0 mi South 4.6 mph - N/A   Clear
10:53 AM 53.1 °F 37.0 °F 55% 30.02 in 10.0 mi South 6.9 mph - N/A   Clear
11:53 AM 57.9 °F 37.9 °F 47% 29.98 in 10.0 mi South 8.1 mph - N/A   Clear
12:53 PM 62.1 °F 37.0 °F 39% 29.93 in 10.0 mi South 9.2 mph - N/A   Clear
1:53 PM 64.9 °F 37.9 °F 37% 29.88 in 10.0 mi South 9.2 mph - N/A   Clear
2:53 PM 66.0 °F 35.1 °F 32% 29.86 in 10.0 mi South 11.5 mph - N/A   Clear
3:53 PM 66.0 °F 32.0 °F 28% 29.84 in 10.0 mi South 10.4 mph - N/A   Clear
4:53 PM 62.1 °F 33.1 °F 34% 29.84 in 10.0 mi South 6.9 mph - N/A   Clear
5:53 PM 55.9 °F 32.0 °F 40% 29.85 in 10.0 mi South 4.6 mph - N/A   Clear
6:53 PM 53.1 °F 37.0 °F 55% 29.86 in 10.0 mi South 6.9 mph - N/A   Clear
7:53 PM 51.1 °F 37.9 °F 61% 29.86 in 10.0 mi SSE 8.1 mph - N/A   Clear
8:53 PM 50.0 °F 39.0 °F 66% 29.84 in 10.0 mi South 8.1 mph - N/A   Clear
9:53 PM 52.0 °F 39.9 °F 63% 29.83 in 10.0 mi South 9.2 mph - N/A   Clear
10:53 PM 50.0 °F 39.0 °F 66% 29.82 in 10.0 mi South 6.9 mph - N/A   Clear
11:53 PM 48.0 °F 37.9 °F 68% 29.81 in 10.0 mi SSW 4.6 mph - N/A   Clear